Home > Time Zones > World Clock > Weather > U.S.A. > Knox > Past weeks

Flag for U.S.A. Weather past 2 weeks in Knox, Indiana, U.S.A.

Now
86 °F

Sunny.


Feels Like: 89 °F
Forecast: 60 / 78 °F
Wind: 20 mph from Southwest

Location: Porter County Municipal Airport

Current Time: Aug 2, 2015 at 7:57:31 PM

Latest Report: Aug 2, 2015 at 6:56 PM


Visibility: 10 mi

Pressure: 29.70 "Hg

Humidity: 53%

Dew point: 67 °F

Location of KnoxLocation

Historic Weather in Knox — Graph

°F

Knox temperature yesterday

Maximum temperature yesterday: 84 °F (at 3:56 PM)
Minimum temperature yesterday: 61 °F (at 5:56 AM)
Average temperature yesterday: 74 °F

Past Weeks' High & Low Weather Summary

 TemperatureHumidityPressure
High92 °F (Aug 2, 1:56 PM)100% (Jul 20, 5:02 AM)30.06 "Hg (Jul 20, 5:02 AM)
Low60 °F (Jul 23, 4:56 AM)33% (Jul 30, 2:56 PM)29.70 "Hg (Aug 2, 6:56 PM)
Average75 °F70%29.94 "Hg
* Reported Jul 18 6:04 PM — Aug 2 6:56 PM, Knox, Weather by CustomWeather, © 2015

Note: Actual official high and low records may vary slightly from our data, if they occured in-between our weather recording intervals... More about our weather records

Advertising

Knox weather history for previous 24 hours

 ConditionsComfort  
Time TempWeatherWind HumidityBarometerVisibility
6:56 PM
Sun, Aug 2
86 °FSunny.20 mph53%29.70 "Hg10 mi
5:56 PM89 °FSunny.24 mph48%29.71 "Hg10 mi
4:56 PM90 °FSunny.24 mph48%29.72 "Hg10 mi
3:56 PM88 °FSunny.16 mph43%29.76 "Hg10 mi
2:56 PM92 °FSunny.18 mph38%29.78 "Hg10 mi
1:56 PM92 °FPassing clouds.17 mph38%29.80 "Hg10 mi
12:56 PM91 °FSunny.22 mph47%29.81 "Hg10 mi
11:56 AM88 °FSunny.18 mph52%29.83 "Hg10 mi
10:56 AM85 °FSunny.16 mph59%29.85 "Hg10 mi
9:56 AM82 °FSunny.17 mph65%29.87 "Hg10 mi
8:56 AM77 °FSunny.13 mph71%29.89 "Hg10 mi
7:56 AM71 °FSunny.7 mph81%29.89 "Hg10 mi
6:56 AM68 °FSunny.9 mph87%29.89 "Hg10 mi
5:56 AM65 °FSunny.5 mph91%29.89 "Hg10 mi
4:56 AM66 °FClear.6 mph87%29.89 "Hg10 mi
3:56 AM67 °FClear.6 mph87%29.89 "Hg10 mi
2:56 AM68 °FClear.7 mph84%29.90 "Hg10 mi
1:56 AM68 °FClear.6 mph87%29.90 "Hg10 mi
12:56 AM70 °FClear.7 mph81%29.90 "Hg10 mi
11:56 PM
Sat, Aug 1
71 °FClear.8 mph78%29.91 "Hg10 mi
10:56 PM72 °FPassing clouds.8 mph73%29.91 "Hg10 mi
9:56 PM73 °FClear.8 mph69%29.92 "Hg10 mi
8:56 PM75 °FClear.9 mph62%29.91 "Hg10 mi
7:56 PM78 °FSunny.10 mph54%29.90 "Hg10 mi
Weather by CustomWeather, © 2015

See weather overviewHow to use our weather pages